• In Schweiz
  • Länderverzeichnis
  • Für 7 Tage
  • Wassertemperatur
  • Satellitenkarten
  • Wetterkarte
  • Widgets
  • user-avatar
    Anmelden

    Stündliche Wetter Thimbu

    Heute, 20 Februar, Dienstag

    Zeit Temperatur Niederschläge Wind Luftdruck Luftfeuchtigkeit
    00:00 -1°C° 0 mm 2 m/S 520 mmHg 72%
    01:00 -1°C° 0 mm 2 m/S 520 mmHg 68%
    02:00 -1°C° 0 mm 2 m/S 520 mmHg 65%
    03:00 -2°C° 0 mm 2 m/S 520 mmHg 61%
    04:00 -2°C° 0 mm 2 m/S 520 mmHg 59%
    05:00 -2°C° 0 mm 2 m/S 520 mmHg 57%
    06:00 -2°C° 0 mm 2 m/S 520 mmHg 54%
    07:00 +2°C° 0 mm 1 m/S 522 mmHg 51%
    08:00 +5°C° 0 mm 1 m/S 524 mmHg 47%
    09:00 +7°C° 0 mm 1 m/S 526 mmHg 43%
    10:00 +7°C° 0 mm 2 m/S 526 mmHg 43%
    11:00 +9°C° 0 mm 2 m/S 526 mmHg 44%
    12:00 +10°C° 0 mm 3 m/S 527 mmHg 44%
    13:00 +9°C° 0 mm 3 m/S 526 mmHg 48%
    14:00 +9°C° 0 mm 3 m/S 525 mmHg 52%
    15:00 +8°C° 0 mm 3 m/S 524 mmHg 56%
    16:00 +6°C° 0,1 mm 2 m/S 523 mmHg 66%
    17:00 +4°C° 0,1 mm 2 m/S 522 mmHg 76%
    18:00 +3°C° 0,1 mm 1 m/S 521 mmHg 85%
    19:00 +3°C° 0,1 mm 1 m/S 521 mmHg 86%
    20:00 +3°C° 0,1 mm 1 m/S 521 mmHg 87%
    21:00 +2°C° 0,1 mm 1 m/S 521 mmHg 88%
    22:00 +2°C° 0 mm 1 m/S 521 mmHg 87%
    23:00 +2°C° 0 mm 1 m/S 521 mmHg 86%

    Morgen, 21 Februar, Mittwoch

    Zeit Temperatur Niederschläge Wind Luftdruck Luftfeuchtigkeit
    00:00 +1°C° 0 mm 1 m/S 520 mmHg 85%
    01:00 +1°C° 0 mm 1 m/S 520 mmHg 83%
    02:00 0°C° 0 mm 1 m/S 519 mmHg 82%
    03:00 0°C° 0 mm 1 m/S 519 mmHg 80%
    04:00 0°C° 0 mm 1 m/S 519 mmHg 78%
    05:00 0°C° 0 mm 1 m/S 519 mmHg 75%
    06:00 -1°C° 0 mm 1 m/S 518 mmHg 73%
    07:00 +2°C° 0 mm 1 m/S 520 mmHg 64%
    08:00 +4°C° 0 mm 1 m/S 522 mmHg 56%
    09:00 +7°C° 0 mm 1 m/S 524 mmHg 48%
    10:00 +8°C° 0 mm 1 m/S 524 mmHg 48%
    11:00 +7°C° 0 mm 2 m/S 524 mmHg 47%
    12:00 +8°C° 0 mm 2 m/S 525 mmHg 47%
    13:00 +8°C° 0,1 mm 2 m/S 524 mmHg 51%
    14:00 +7°C° 0,1 mm 2 m/S 523 mmHg 56%
    15:00 +7°C° 0,1 mm 3 m/S 522 mmHg 60%
    16:00 +5°C° 0,1 mm 2 m/S 521 mmHg 68%
    17:00 +4°C° 0,1 mm 2 m/S 520 mmHg 77%
    18:00 +3°C° 0,1 mm 1 m/S 519 mmHg 85%
    19:00 +3°C° 0 mm 1 m/S 519 mmHg 85%
    20:00 +2°C° 0 mm 1 m/S 520 mmHg 86%
    21:00 +2°C° 0 mm 1 m/S 520 mmHg 86%
    22:00 +1°C° 0 mm 1 m/S 520 mmHg 85%
    23:00 +1°C° 0 mm 1 m/S 519 mmHg 83%

    übermorgen, 22 Februar, Donnerstag

    Zeit Temperatur Niederschläge Wind Luftdruck Luftfeuchtigkeit
    00:00 +1°C° 0 mm 1 m/S 519 mmHg 81%
    01:00 +1°C° 0 mm 1 m/S 519 mmHg 80%
    02:00 0°C° 0 mm 1 m/S 519 mmHg 79%
    03:00 0°C° 0 mm 1 m/S 518 mmHg 78%
    04:00 0°C° 0 mm 1 m/S 518 mmHg 77%
    05:00 0°C° 0 mm 1 m/S 518 mmHg 76%
    06:00 0°C° 0 mm 1 m/S 518 mmHg 75%
    07:00 +2°C° 0 mm 1 m/S 520 mmHg 69%
    08:00 +4°C° 0 mm 1 m/S 522 mmHg 62%
    09:00 +6°C° 0 mm 1 m/S 523 mmHg 56%
    10:00 +5°C° 0,1 mm 2 m/S 523 mmHg 56%
    11:00 +6°C° 0,1 mm 2 m/S 523 mmHg 57%
    12:00 +5°C° 0,1 mm 3 m/S 523 mmHg 57%
    13:00 +5°C° 0,5 mm 3 m/S 522 mmHg 61%
    14:00 +4°C° 0,5 mm 3 m/S 521 mmHg 64%
    15:00 +4°C° 0,5 mm 3 m/S 521 mmHg 68%
    16:00 +4°C° 0,6 mm 2 m/S 520 mmHg 74%
    17:00 +3°C° 0,6 mm 2 m/S 519 mmHg 79%
    18:00 +2°C° 0,6 mm 1 m/S 519 mmHg 85%
    19:00 +2°C° 0,4 mm 1 m/S 519 mmHg 85%
    20:00 +2°C° 0,4 mm 1 m/S 520 mmHg 85%
    21:00 +1°C° 0,4 mm 1 m/S 520 mmHg 84%
    22:00 +1°C° 0,2 mm 1 m/S 520 mmHg 84%
    23:00 +1°C° 0,2 mm 1 m/S 520 mmHg 83%

    23 Februar, Freitag

    Zeit Temperatur Niederschläge Wind Luftdruck Luftfeuchtigkeit
    00:00 +1°C° 0,2 mm 1 m/S 520 mmHg 83%
    01:00 +1°C° 0,1 mm 1 m/S 520 mmHg 82%
    02:00 0°C° 0,1 mm 1 m/S 519 mmHg 81%
    03:00 0°C° 0,1 mm 1 m/S 519 mmHg 81%
    04:00 -1°C° 0 mm 1 m/S 519 mmHg 79%
    05:00 -1°C° 0 mm 1 m/S 519 mmHg 77%
    06:00 -4°C° 0 mm 2 m/S 518 mmHg 75%
    07:00 +1°C° 0 mm 1 m/S 520 mmHg 67%
    08:00 +3°C° 0 mm 1 m/S 522 mmHg 60%
    09:00 +5°C° 0 mm 0 m/S 524 mmHg 52%
    10:00 +7°C° 0 mm 1 m/S 524 mmHg 52%
    11:00 +7°C° 0 mm 1 m/S 524 mmHg 53%
    12:00 +7°C° 0 mm 2 m/S 525 mmHg 53%
    13:00 +7°C° 0,1 mm 2 m/S 524 mmHg 56%
    14:00 +7°C° 0,1 mm 2 m/S 523 mmHg 59%
    15:00 +7°C° 0,1 mm 2 m/S 523 mmHg 61%
    16:00 +5°C° 0,1 mm 2 m/S 522 mmHg 69%
    17:00 +4°C° 0,1 mm 1 m/S 521 mmHg 77%
    18:00 +3°C° 0,1 mm 1 m/S 520 mmHg 85%
    19:00 +2°C° 0 mm 1 m/S 521 mmHg 84%
    20:00 +2°C° 0 mm 1 m/S 521 mmHg 84%
    21:00 +2°C° 0 mm 1 m/S 521 mmHg 83%
    22:00 +1°C° 0 mm 1 m/S 521 mmHg 81%
    23:00 +1°C° 0 mm 1 m/S 521 mmHg 80%

    24 Februar, Samstag

    Zeit Temperatur Niederschläge Wind Luftdruck Luftfeuchtigkeit
    00:00 +1°C° 0 mm 1 m/S 521 mmHg 78%
    01:00 0°C° 0 mm 1 m/S 521 mmHg 76%
    02:00 -2°C° 0 mm 2 m/S 520 mmHg 75%
    03:00 -2°C° 0 mm 2 m/S 520 mmHg 73%
    04:00 -2°C° 0 mm 2 m/S 520 mmHg 71%
    05:00 -3°C° 0 mm 2 m/S 520 mmHg 68%
    06:00 -3°C° 0 mm 2 m/S 520 mmHg 66%
    07:00 +2°C° 0 mm 1 m/S 522 mmHg 59%
    08:00 +5°C° 0 mm 1 m/S 525 mmHg 53%
    09:00 +6°C° 0 mm 0 m/S 527 mmHg 46%
    10:00 +8°C° 0 mm 1 m/S 527 mmHg 47%
    11:00 +9°C° 0 mm 1 m/S 527 mmHg 48%
    12:00 +9°C° 0 mm 2 m/S 527 mmHg 49%
    13:00 +9°C° 0 mm 2 m/S 527 mmHg 52%
    14:00 +8°C° 0 mm 2 m/S 526 mmHg 56%
    15:00 +8°C° 0 mm 2 m/S 525 mmHg 59%
    16:00 +6°C° 0 mm 2 m/S 524 mmHg 68%
    17:00 +5°C° 0 mm 1 m/S 523 mmHg 77%
    18:00 +4°C° 0 mm 1 m/S 523 mmHg 86%
    19:00 +3°C° 0 mm 1 m/S 523 mmHg 85%
    20:00 +3°C° 0 mm 1 m/S 523 mmHg 85%
    21:00 +3°C° 0 mm 1 m/S 523 mmHg 84%
    22:00 +2°C° 0 mm 1 m/S 523 mmHg 82%
    23:00 +2°C° 0 mm 1 m/S 523 mmHg 80%

    25 Februar, Sonntag

    Zeit Temperatur Niederschläge Wind Luftdruck Luftfeuchtigkeit
    00:00 +1°C° 0 mm 1 m/S 522 mmHg 78%
    01:00 -1°C° 0 mm 2 m/S 522 mmHg 75%
    02:00 -1°C° 0 mm 2 m/S 522 mmHg 73%
    03:00 -1°C° 0 mm 2 m/S 521 mmHg 70%
    04:00 -2°C° 0 mm 2 m/S 521 mmHg 69%
    05:00 -2°C° 0 mm 2 m/S 521 mmHg 67%
    06:00 -2°C° 0 mm 2 m/S 521 mmHg 65%
    07:00 +3°C° 0 mm 1 m/S 523 mmHg 59%
    08:00 +5°C° 0 mm 1 m/S 525 mmHg 53%
    09:00 +7°C° 0 mm 0 m/S 527 mmHg 47%
    10:00 +9°C° 0 mm 1 m/S 527 mmHg 48%
    11:00 +9°C° 0 mm 2 m/S 527 mmHg 49%
    12:00 +9°C° 0 mm 2 m/S 527 mmHg 50%
    13:00 +9°C° 0 mm 2 m/S 527 mmHg 53%
    14:00 +9°C° 0 mm 2 m/S 526 mmHg 55%
    15:00 +9°C° 0 mm 2 m/S 525 mmHg 58%
    16:00 +7°C° 0,1 mm 2 m/S 524 mmHg 67%
    17:00 +6°C° 0,1 mm 1 m/S 523 mmHg 75%
    18:00 +4°C° 0,1 mm 1 m/S 522 mmHg 84%
    19:00 +4°C° 0,1 mm 1 m/S 522 mmHg 84%
    20:00 +4°C° 0,1 mm 1 m/S 522 mmHg 85%
    21:00 +3°C° 0,1 mm 1 m/S 523 mmHg 85%
    22:00 +3°C° 0 mm 1 m/S 522 mmHg 84%
    23:00 +3°C° 0 mm 1 m/S 522 mmHg 82%
    Mehr zeigen